GFSWCAN_prec_radar_021.txt.gz
Reflectivity
-20 -20 -20 -20 -20 -20 -20 -20 -20 -20 -20 -20 -20 -16 4 17 33 30 18 -7 9 12 -1 -10 -20 -12 10 14 -1 -20 -3 -7 3 17 8 -3 8 -3 -20 -20 -20 -20 -20 -19 -20 -20 -20 -20 -20 -20 -20 -20 -20 -20
-20 -20 -20 -20 -20 -20 -20 -20 -20 -20 -20 -20 -20 7 4 21 31 33 25 9 5 15 -11 -20 -20 -18 -19 -18 1 5 -13 -8 2 1 -1 -14 16 -16 -1 1 -20 -20 -19 14 -20 -20 -20 -20 -20 -20 -20 -20 -20 -20
-20 -20 -20 -20 -20 -20 -20 -20 -20 -20 -20 -20 8 15 10 13 22 32 28 30 24 21 10 -20 -19 -20 -20 -20 -20 -8 -17 -11 -20 -15 14 15 11 12 14 8 2 -17 14 -17 -15 -20 -20 -20 -20 -20 -20 -20 -20 -20
-20 -20 -20 -20 -20 -20 -20 -20 -20 -20 -20 -1 10 13 12 15 12 24 21 22 26 22 10 -18 -20 -20 -20 -20 -20 -20 -20 -20 -20 -4 14 19 11 10 7 -20 13 -11 -20 -20 -20 -20 -20 -20 -20 -20 -20 -20 -20 -20
-20 -20 -20 -20 -20 -20 -20 -20 -20 -20 -20 -2 0 12 14 16 5 14 8 -6 19 27 10 -7 -20 -20 -20 -20 -20 -20 -20 -20 -20 18 17 17 8 12 -3 -5 4 -20 -20 -17 -20 -20 -20 -20 -20 -20 -20 -19 -20 -20
-20 -20 -20 -20 -20 -20 -4 -20 -20 -20 -2 -4 14 15 11 7 3 -20 -20 -18 19 17 28 3 -20 -20 -20 -20 -20 -20 -20 -20 -19 6 3 -1 -19 16 20 13 2 6 -19 -20 -20 -20 -20 -20 -20 -20 -20 -20 6 -9
-20 -20 -20 -20 -20 -20 -20 -20 0 -2 -20 3 17 7 -9 -9 -20 0 -7 -2 20 15 22 15 -17 -20 -14 -20 -18 -20 -7 -15 3 22 19 2 -20 23 24 3 20 15 4 1 1 -20 -20 -20 -20 -20 -6 26 -17 28
-20 -20 -20 -20 -20 -20 -20 1 -2 -9 -11 19 15 -16 -19 4 -6 7 -14 10 13 19 16 19 12 -16 3 9 25 14 9 17 25 22 13 5 11 21 21 -8 -3 20 27 27 15 -20 -20 -20 -17 -13 29 22 29 19
-20 -20 -20 -13 4 14 14 10 -10 -20 13 12 -17 -16 -18 -19 -11 -10 3 16 8 25 29 27 31 22 20 24 25 27 30 36 32 35 28 29 26 32 15 17 23 25 17 13 -3 -10 8 3 5 33 30 26 25 -2
-20 9 11 13 12 12 12 8 -20 10 -19 -20 -20 -20 -19 -11 13 13 6 14 18 23 27 28 33 33 31 23 18 30 30 34 34 30 35 32 33 30 35 30 42 35 27 7 -11 -20 12 31 28 43 33 40 24 3
12 2 11 11 -8 -6 -20 -20 -13 -4 -20 -20 -20 -19 4 -20 6 -5 8 17 18 25 25 27 22 20 18 22 19 29 35 31 32 34 35 38 36 40 31 32 39 30 7 8 -9 4 1 18 31 44 38 42 19 2
11 6 9 -15 -20 -20 -20 -20 -11 -20 -20 -0 -6 12 10 -20 -20 -14 3 17 23 30 10 14 20 -3 7 14 22 18 29 32 32 31 37 38 40 43 38 38 40 26 25 23 18 29 35 42 38 37 34 28 38 27
8 6 -18 -20 -20 -20 -20 -20 -19 3 0 -9 8 11 2 -6 1 13 18 7 21 10 5 -2 4 16 -20 -0 6 17 19 21 20 34 33 41 35 38 25 28 31 33 34 25 32 33 36 29 23 29 38 43 42 22
7 -20 -20 -20 -20 -20 -20 -20 -20 -20 -20 -16 15 -14 -20 19 29 32 19 -1 -8 -5 -3 10 -1 -8 1 -20 -18 -20 -1 -1 15 30 33 36 36 33 29 37 39 38 42 40 40 41 34 33 32 40 39 37 24 17
-19 -20 -20 -20 -20 -20 -20 -20 -20 -20 -20 -20 -20 -20 -20 -12 -7 -3 7 -20 -20 -7 5 3 -18 0 -0 -1 -10 -20 -19 30 37 34 26 28 29 29 21 20 20 26 33 35 34 35 33 35 36 35 33 24 28 22
-20 -20 -20 -20 -20 -20 -20 -20 -20 -20 -20 -20 -20 -20 -20 -20 -20 -18 -2 6 -18 -16 -6 -20 -20 -20 -18 -9 -6 20 16 31 32 33 33 19 10 11 10 15 18 12 12 16 25 26 32 30 26 29 27 26 22 21
-20 -20 -20 -20 -20 -20 -20 -20 -20 -20 -20 -20 -20 -20 -20 -20 -20 -20 -20 -20 -20 -20 -20 -20 -20 6 -3 15 27 27 37 31 17 10 -20 -20 -20 -20 0 6 5 5 -3 -3 1 11 9 4 4 13 22 29 26 15
-20 -20 -20 -20 -20 -20 -20 -20 -20 -20 -20 -20 -20 -20 -20 -20 -20 -20 -20 -20 -20 -20 -20 -20 -20 -8 25 24 10 9 21 8 -12 -20 -20 -20 -20 -20 -20 -20 -20 -20 -13 -4 -20 -20 -20 -20 -10 -19 -5 -1 -7 -5
-20 -20 -20 -20 -20 -20 -20 -20 -20 -20 -20 -20 -20 -20 -20 -20 -20 -20 -20 -20 -20 -20 -20 -20 -20 -8 -20 -20 -20 -20 -20 -20 -20 -20 -20 -20 -20 -20 -20 -20 -20 -20 -20 -20 -20 -20 -20 -20 -20 -20 -20 -20 -20 -20
-20 -20 -20 -20 -20 -20 -20 -20 -20 -20 -20 -20 -20 -20 -20 -20 -20 -20 -20 -20 -20 -20 -20 -20 -20 -20 -20 -20 -20 -20 -20 -20 -20 -20 -20 -20 -20 -20 -20 -20 -20 -20 -20 -20 -20 -20 -20 -20 -20 -20 -20 -20 -20 -20
-20 -20 -20 -20 -20 -20 -20 -20 -20 -20 -20 -20 -20 -20 -20 -20 -20 -20 -20 -20 -20 -20 -20 -20 -20 -20 -20 -20 -20 -20 -20 -20 -20 -20 -20 -20 -20 -20 -20 -20 -20 -20 -20 -20 -20 -20 -20 -20 -20 -20 -20 -20 -20 -20
-20 -20 -20 -20 -20 -20 -20 -20 -20 -20 -20 -20 -20 -20 -20 -20 -20 -20 -20 -20 -14 2 -2 -20 -20 -20 -20 -20 -20 -20 -20 -20 -20 -20 -20 -20 -20 -20 -20 -20 -20 -20 -20 -20 -20 -20 -20 -20 -20 -20 -20 -20 -20 -20
-20 -20 -20 -20 -20 -20 -20 -20 -20 -20 -20 -20 -20 -20 -20 -20 -20 -20 -20 -15 9 -19 -20 -20 -20 -20 -20 -20 -20 -20 -20 -20 -20 -20 -20 -20 -20 -20 -20 -20 -20 -20 -20 -20 -20 -20 -20 -20 -20 -20 -20 -20 -20 -20
-20 -20 -20 -20 -20 -0 -20 -20 -20 -20 -20 -20 -20 -20 -20 -20 -20 -20 -20 -20 -7 2 -20 -20 -20 -20 -20 -20 -20 -20 -20 -20 -20 -20 -20 -20 -20 -20 -20 -20 -20 -20 -20 -20 -20 -20 -20 -20 -20 -20 -20 -20 -20 -20
-20 -20 -20 -20 -20 -20 -20 -20 -20 -20 -20 -20 -20 -20 -20 -20 -20 -20 -20 -20 -20 -20 -13 -20 -20 -20 -20 -20 -20 -20 -20 -20 -20 -20 -20 -20 -20 -20 -20 -20 -20 -20 -20 -20 -20 -20 -20 -20 -20 -20 -20 -20 -20 -20
-20 -20 -20 -20 -20 -20 -20 -20 -20 -20 -20 -20 -20 -20 -20 -20 -20 -20 -20 -20 -20 -20 -20 -20 -20 -20 -20 -20 -20 -20 -20 -20 -20 -20 -20 -20 -20 -20 -20 -20 -20 -20 -20 -20 -20 -20 -20 -20 -20 -20 -20 -20 -20 -20
-20 -20 -20 -20 -20 -20 -20 -20 -20 -20 -20 -20 -20 -20 -20 -20 -20 -20 -20 -20 -20 -20 -20 -20 -20 -20 -20 -20 -20 -20 -20 -20 -20 -20 -20 -20 -20 -20 -20 -20 -20 -20 -20 -20 -20 -20 -20 -20 -20 -20 -20 -20 -20 -20
-20 -20 -20 -20 -20 -20 -20 -20 -20 -20 -20 -20 -20 -20 -20 -20 -20 -20 -20 -20 -20 -20 -20 -20 -20 -20 -20 -20 -20 -20 -20 -20 -20 -20 -20 -20 -20 -20 -20 -20 -20 -20 -20 -20 -20 -20 -20 -20 -20 -20 -20 -20 -20 -20
-20 -20 -20 -20 -20 -20 -20 -20 -20 -20 -20 -20 -20 -20 -20 -20 -20 -20 -20 -20 -20 -20 -20 -20 -20 -20 -20 -20 -20 -20 -20 -20 -20 -20 -20 -20 -20 -20 -20 -20 -20 -20 -20 -20 -20 -20 -20 -20 -20 -20 -20 -20 -20 -20
-20 -5 -20 -20 -20 -20 -20 -20 0 -3 -5 -20 -20 -20 -20 -20 -1 -19 -7 23 -14 -20 -20 -20 -20 -20 -20 -20 -20 -20 -20 -20 -20 -20 -20 -20 -20 -20 -20 -20 -20 -20 -20 -20 -20 -20 -20 -20 -20 -20 -20 -12 1 1
-20 -20 -20 -20 -20 -20 -20 -20 -20 -20 -20 -20 -15 -3 14 9 -9 -18 15 30 8 13 -20 -20 -20 -20 -20 -20 -20 -20 -20 -20 -20 -20 -20 -20 -20 -20 -20 -20 -20 -20 -20 -20 -20 -20 -20 -20 -20 -20 -20 -14 -14 -20
-20 -20 -20 -20 -20 -20 -20 -20 -20 -20 -20 -20 -20 -20 -20 4 -20 -20 2 17 -18 -20 -20 -20 -20 -20 -20 -20 -20 -20 -20 -20 -20 -20 -20 -20 -20 -20 -20 -20 -20 -20 -20 -20 -20 -20 -20 -2 3 2 1 -20 -20 -20
-20 -20 -20 -20 -20 -20 -20 -20 -20 -20 -20 -20 -20 -20 11 -20 -20 -17 -15 -9 -20 -20 -20 -20 -20 -20 -20 -20 -20 -20 -20 -20 -20 -20 -20 -20 -20 -20 -20 -20 -20 -20 -20 -20 -20 -20 -20 -16 3 2 2 -5 -20 0

GFSWCAN_prec_radar_024.txt.gz
Reflectivity
-18 -20 -20 -20 -20 -20 -20 -20 -20 -20 -20 -20 0 15 13 9 16 32 24 30 29 25 -3 -5 -20 5 6 8 14 4 -4 -9 15 21 12 -13 -19 14 -20 -20 -19 -8 -20 -20 -20 -20 -20 -20 -20 -20 -20 -20 -20 -20
-20 -20 -20 -20 -20 -20 -20 -20 -20 -20 -20 -15 14 17 13 -9 15 31 27 23 27 25 -6 -20 -1 -5 -20 -2 -12 10 -11 4 5 20 22 11 16 17 14 7 -20 -20 -20 -20 -20 -20 -20 -20 -20 -20 -20 -20 -20 -20
-20 -20 -20 -20 -20 -20 -20 -20 -20 -20 -2 -0 15 12 12 5 13 21 21 16 26 20 7 -4 -20 -20 -20 -20 -20 11 0 -20 -20 -20 7 19 9 -13 15 -11 -14 -20 -20 -20 -17 -20 -20 -20 -20 -20 -20 -20 -20 -20
-11 -20 -20 -20 -20 -20 -20 -20 -20 -3 0 13 14 6 6 14 13 13 18 2 18 22 19 -2 -20 -20 -20 -20 -20 -20 -16 -15 -17 11 20 10 16 -1 9 -14 -3 -20 -11 -20 -20 -20 -20 -20 -20 -20 -20 -20 -20 -20
-18 -20 -20 -20 -20 -20 -20 -8 -4 -12 14 13 10 11 15 16 5 -3 18 -20 0 26 15 -13 -20 -20 -20 -20 -20 -20 -11 -14 2 15 16 9 5 5 -20 3 -20 -19 -18 -2 -20 -20 -20 -20 -20 -20 -20 -20 -20 -20
-20 -20 -20 -20 -20 -20 -3 -1 -1 14 14 13 10 14 8 5 3 6 7 -8 14 19 26 4 -20 -20 -20 -3 2 -7 -9 1 4 12 7 4 -12 21 22 9 -20 -20 -20 -20 -20 -20 -20 -20 -20 -20 -20 -20 -20 -20
-20 -20 -20 -19 4 12 -2 3 10 13 9 13 9 -18 -20 -20 -0 -0 -4 9 19 15 18 8 5 1 12 18 21 17 25 26 22 25 30 19 14 24 21 -2 17 14 -20 -20 -20 -16 -15 -20 -20 -20 -20 -20 -20 -19
-20 -20 -1 11 15 -12 -9 -5 2 12 13 13 8 6 -20 -20 -14 -1 -6 2 2 7 20 30 23 20 28 28 30 26 32 31 31 34 33 33 31 33 33 22 22 27 17 11 -9 -20 -17 -20 -20 -20 -20 4 5 10
-20 10 1 12 10 -20 -20 -20 -20 13 12 -4 -20 -20 -20 -2 2 10 6 11 -6 14 27 33 30 32 28 19 20 25 29 33 32 33 36 35 38 41 39 40 39 38 26 8 17 5 -4 8 -20 -20 -4 7 -11 24
7 12 4 11 -12 -20 -20 -20 11 -5 -20 -20 -20 -20 7 -20 7 15 5 -2 -4 8 16 27 21 17 20 14 18 28 27 36 36 34 37 42 42 41 44 33 14 29 11 11 14 10 5 -2 7 4 -12 -20 36 19
12 8 1 -20 -20 -20 -20 -7 10 -20 -20 -20 -20 -18 -20 -20 3 -5 -11 -6 -6 13 13 3 5 4 -9 16 18 20 19 31 33 29 35 40 38 41 40 26 20 8 -20 -1 17 22 -12 15 10 15 34 36 36 39
6 -2 -20 -20 -20 -20 -20 -20 -2 -20 -20 -20 -9 3 -20 -13 -10 -20 -13 -12 -13 9 10 -1 2 6 -9 -15 8 12 22 18 25 20 30 33 39 38 38 36 26 23 31 29 36 37 26 25 29 38 35 39 36 22
-12 -14 -20 -20 -20 -20 -20 -20 -20 -20 -20 -14 19 14 -19 -20 -20 -3 3 -15 -17 -1 1 3 5 12 11 2 23 15 -18 -4 -6 21 33 33 29 37 39 39 36 32 28 29 35 35 30 32 37 38 38 37 36 36
-20 -16 -20 -20 -20 -20 -20 -20 -20 -20 -12 -20 -14 4 -18 1 -15 -18 2 -11 -7 -20 -20 -20 4 7 2 -4 -2 10 -19 -20 6 28 28 27 24 30 32 34 36 36 37 37 35 35 36 38 39 36 35 37 35 37
-20 -20 -20 -20 -20 -20 -20 -20 -20 -20 -20 -20 -20 -20 -20 -20 -20 -20 -20 -20 -20 -20 -20 -20 -20 -20 -20 4 11 2 9 27 30 26 15 8 6 13 20 25 22 24 27 31 35 33 33 34 29 25 25 23 15 25
-20 -20 -20 -20 -20 -20 -20 -20 -20 -20 -20 -20 -20 -20 -20 -20 -20 -20 -20 -20 -20 -20 -20 -20 -13 -12 8 11 18 11 17 27 20 6 -3 -19 -20 -20 -13 10 13 13 11 17 17 12 -15 -8 18 14 21 31 27 21
-15 -20 -20 -20 -20 -20 -20 -20 -20 -20 -20 -20 -20 -20 -20 -20 -20 -20 -20 -20 -20 -20 -20 -20 4 11 -1 -10 12 21 25 24 3 -20 -20 -20 -20 -20 -20 -20 -8 -10 -3 4 9 8 9 1 -20 -4 -10 -19 -20 -18
-20 -20 -20 -20 -20 -20 -20 -20 -20 -20 -20 -20 -20 -20 -20 -20 -20 -20 -20 -20 -20 -20 -20 -20 -20 -16 5 14 16 17 17 22 -20 -20 -20 -20 -20 -20 -20 -20 -20 -20 -20 -20 -19 -20 -20 2 4 -7 -17 -20 -20 -20
-20 -20 -20 -20 -20 -15 -20 -20 -20 -20 -20 -20 -20 -20 -20 -20 -20 -20 -20 -20 -20 -20 -20 -20 -12 8 2 -6 2 -20 -20 -11 8 -20 -20 -20 -20 -20 -20 -20 -20 -20 -20 -20 -20 -20 -20 -20 -20 -20 -20 -20 -20 -20
-20 -20 -20 -20 -20 -20 -20 -20 -20 -20 -20 -20 -20 -20 -20 -20 -20 -20 -20 -20 -20 -20 -20 -20 -20 -20 -20 -20 -20 -20 -20 -20 -20 -20 -20 -20 -20 -20 -20 -20 -20 -20 -20 -20 -20 -20 -20 -20 -20 -20 -20 -20 -20 -20
-20 -20 -20 -20 -20 -20 -20 -20 -20 -20 -20 -14 -8 -20 6 -20 -20 -20 -20 -20 -20 -20 -20 -20 -20 -20 -20 -20 -20 -20 -20 -20 -20 -20 -20 -20 -20 -20 -20 -20 -20 -20 -20 -20 -20 -20 -20 -20 -20 -20 -20 -20 -20 -20
-20 -20 -20 -20 -20 -20 -20 -20 -20 -20 8 -20 8 -20 -20 -14 -20 -20 -20 -20 -20 -19 -20 -20 -20 -20 -20 -20 -20 -20 -20 -20 -20 -20 -20 -20 -20 -20 -20 -20 -20 -20 -20 -20 -20 -20 -20 -20 -20 -20 -20 -20 -20 -20
-20 -15 -20 -20 -20 10 9 -20 -20 -20 11 -12 -7 1 -1 3 -1 -20 -20 -20 -20 -20 -20 -20 -20 -20 -20 -20 -20 -20 -20 -20 -20 -20 -20 -20 -20 -20 -20 -20 -20 -20 -20 -20 -20 -20 -20 -20 -20 -20 -20 -20 -20 -20
-20 -20 -20 -20 -15 6 -20 -20 -20 -20 -20 -20 -20 -20 -16 -8 -18 -20 -20 -20 -20 -20 -20 -20 -20 -20 -20 -20 -20 -20 -20 -20 -20 -20 -20 -20 -20 -20 -20 -20 -20 -20 -20 -20 -5 -20 -20 -20 -20 -20 -20 -20 -20 -20
-15 -4 9 13 -20 -20 -20 -20 -20 -20 -20 -20 -20 -20 -20 -20 -20 -20 -20 -20 -20 -20 -20 -20 -20 -20 -20 -20 -20 -20 -20 -20 -20 -20 -20 -20 -20 -20 -20 -19 -20 -20 -20 -20 -19 -14 -12 -1 -20 -20 -20 -20 -20 -20
-15 -16 12 -20 -20 -20 -20 -20 -20 -20 -20 -20 -20 -20 -20 -20 -20 -20 -20 -20 -20 -20 -20 -20 -20 -20 -20 -20 -20 -20 -20 -20 -20 -20 -20 -20 -20 -20 -20 -7 -20 -20 -20 -20 -1 -20 -20 -20 -20 -20 -20 -20 -20 -20
-20 -20 -20 -20 -20 -20 -20 -20 -20 -20 -20 -20 -20 -20 -20 -20 -20 -20 -20 -20 -20 -20 -20 -20 -20 -20 -20 -20 -20 -20 -20 -20 -20 -20 -20 -20 -20 -20 -20 -20 -20 -20 -20 -20 -20 -20 -20 -20 -20 -20 -20 -20 -20 -20
-20 -20 -20 -20 -20 -20 -20 -20 -20 -20 -20 -20 -20 -20 -20 -20 -20 -15 -20 11 5 -10 -20 -8 -20 -20 -20 -20 -20 -20 -20 -20 -20 -20 -20 -20 -20 -20 -20 -20 -20 -20 -20 -20 -20 -20 -20 -20 -20 -20 -20 -20 -20 -20
-20 -20 -20 -20 -20 -20 -20 -20 -20 -20 -20 -20 -20 -20 -20 -20 -20 -20 -20 -20 2 31 26 24 -18 -20 -20 -20 -20 -20 -20 -20 -20 -20 -20 -8 -20 -20 -20 -20 -20 -20 -20 -20 -20 -20 -20 -20 -20 -20 -20 -20 -20 -20
-20 -20 -20 -20 -20 -20 -20 -20 -20 -20 -20 -20 -20 -20 -20 -20 -20 -20 -20 -2 6 -0 3 8 -20 -20 -20 -20 -20 -20 -20 -20 -20 -20 -20 -20 -20 -20 -20 -20 -20 -20 -20 -20 -20 -20 -20 -20 -11 -20 -20 -20 -20 -20
-20 -20 -20 -20 -20 -20 -20 -20 -20 -20 -20 -20 -20 -20 -20 -20 -20 -20 -12 -20 -6 -20 -20 -20 -20 -20 -20 -20 -20 -20 -20 -20 -20 -20 -20 -20 -20 -20 -20 -20 -20 -20 -20 -20 -20 -20 -20 -20 1 -20 -10 -14 -20 -20
-20 -20 -20 -20 -20 -20 -20 -20 -20 -20 -20 -20 -20 -20 -20 -20 -20 -20 -20 -20 -20 -20 -20 -20 -20 -20 -20 -20 -20 -20 -20 -20 -20 -20 -20 -20 -20 -20 -20 -20 -20 -20 -20 -20 -20 -20 -20 -2 4 6 9 8 -2 -20
-20 -20 -20 -20 -20 -20 -20 -20 -20 -20 -20 -20 -20 -20 -20 -20 -20 -20 -20 -20 -20 -20 -20 -20 -20 -20 -20 -20 -20 -20 -20 -20 -20 -20 -20 -20 -20 -20 -20 -20 -20 -20 -20 -20 -18 8 9 9 7 12 10 11 6 2

GFSWCAN_prec_radar_030.txt.gz
Reflectivity
5 -20 -20 -20 -20 -20 -20 -20 -20 -20 -2 15 12 13 14 11 13 18 14 28 29 23 -0 -12 -13 -8 -8 12 15 -20 -1 13 26 24 19 17 24 -19 -19 8 9 -17 -12 -19 -20 -20 9 19 12 5 7 18 -20 -20
-19 -20 -20 -20 -20 -20 -20 -20 -20 9 11 12 13 14 13 13 9 19 16 23 23 22 14 17 16 7 8 2 13 12 6 -12 4 16 -0 -13 14 1 7 11 -3 -15 -8 -0 -20 -20 22 5 15 16 -18 -20 -20 -20
-5 -15 -20 -20 -20 -20 -20 -1 13 11 9 6 10 12 13 13 10 17 16 10 25 22 10 1 -5 27 29 4 -7 -0 -1 -18 -15 -20 -9 -20 -1 -20 -7 1 28 -1 3 -13 -0 -6 20 21 14 9 -15 -20 -20 -20
-8 -20 -20 -20 -20 -20 3 12 11 11 -11 10 13 15 13 8 7 3 14 -6 18 18 16 -15 18 23 13 19 8 2 -4 -19 -3 -20 6 11 3 -20 -20 -20 -20 -20 -10 -20 -8 -20 4 11 -13 -20 -20 -20 -20 -20
-18 -20 -20 -20 -20 -14 12 13 10 3 -8 9 12 7 -4 -17 -20 -13 13 -10 19 15 9 -8 16 16 11 20 1 -1 -20 -2 3 8 7 5 3 -4 -20 -20 -20 -20 -20 -20 -20 -20 -20 -17 -20 -20 -20 -20 -20 -20
-6 -19 -20 -20 -11 6 10 13 10 2 10 9 5 -19 -20 -20 -20 5 15 10 -13 -3 11 24 15 22 13 -12 6 17 19 26 24 20 22 18 11 17 3 -20 -20 -20 -20 -20 -20 -20 -20 -20 -20 -20 -20 -20 -20 -20
-20 -20 -20 -9 -3 -5 9 4 14 12 8 9 -20 -20 -20 -20 -20 -20 -17 -13 -20 -20 6 8 6 4 0 -6 16 26 27 29 31 31 34 32 28 32 30 27 22 15 -5 -20 -20 -20 -20 -20 -20 -20 -20 -20 -20 -20
-20 -20 -20 -20 -20 -20 -20 -8 12 6 -0 -10 -20 -20 -20 -20 -20 -9 -20 -20 -17 -20 -9 -4 1 4 4 4 10 9 16 20 23 29 29 31 26 33 33 33 35 32 28 12 -9 -20 -20 -20 -20 -20 -20 -20 -20 -20
-20 -13 -20 -20 -20 -19 -5 11 -0 -20 -1 -20 -20 -20 -20 -20 -20 -8 -20 -12 -9 -4 -6 -10 -8 5 14 13 7 -5 7 26 18 31 32 35 40 34 41 41 31 23 9 -12 -20 -20 -20 -20 -20 -20 -20 -20 -20 -20
-20 -18 8 -0 -20 -20 -20 -20 -20 -20 -20 -20 -20 -20 -19 -20 -20 -20 -5 -3 -4 -7 -8 -19 -9 -3 10 15 9 9 10 4 17 6 22 35 34 32 34 30 29 20 -2 -7 1 -11 -20 2 -20 -20 -20 -20 -20 -20
-20 -20 -20 -20 -20 -20 -20 -20 -20 -20 -20 -20 -20 -20 -20 -20 -16 -3 -15 2 3 7 -19 -13 -18 -3 -20 -8 0 -7 -3 -1 17 10 -6 27 32 30 30 31 26 30 19 0 -2 -1 -15 -20 -20 -16 -20 -20 -20 8
-20 -20 -20 -20 -20 -20 -20 -20 -20 -20 -20 -20 -20 -20 -11 -19 -20 -13 -20 -20 -8 -13 -20 -11 0 -14 -20 -20 -20 -14 10 7 9 5 2 29 26 29 28 29 35 34 23 21 12 26 12 30 4 -4 6 -9 -11 1
-20 -20 -3 -20 -20 -20 -20 -20 -20 -20 2 -20 -20 -20 -18 -20 -20 -19 7 -9 9 -20 -20 18 27 35 13 -20 14 21 -20 -17 -20 -8 16 20 16 21 22 27 30 33 38 39 42 39 14 16 12 23 27 25 -12 19
-12 -20 -19 -20 -20 -20 -20 -20 -20 -20 -20 -20 -20 7 -17 -20 -20 -20 -20 -20 -20 -20 -20 -20 -1 -18 -20 -20 -20 12 -18 -20 -20 -14 19 17 21 18 13 12 18 26 31 36 41 41 40 37 41 41 38 30 19 27
-20 -20 -20 -9 -20 -20 -20 -20 -20 -17 -20 -20 -20 4 -20 -20 -20 -20 -20 -20 -20 -20 -20 -19 -12 -20 -20 -20 -20 -13 7 7 15 16 12 19 19 1 -6 -2 7 13 21 26 27 27 34 39 40 41 40 32 27 35
-20 -20 -14 -20 -20 -20 -20 -20 -20 -20 -20 -20 -20 -20 -20 -20 -20 -20 -20 -20 -20 -20 -18 -20 -20 -20 -20 -20 -19 1 6 16 13 20 -1 -20 21 6 2 -13 -15 -4 7 13 15 19 27 26 24 31 32 34 37 38
0 -20 -20 -20 -20 -20 -20 -20 -20 -20 -20 -20 -20 -20 -20 -20 -20 -20 -20 -20 -20 -20 -20 -20 -20 -18 -20 -18 10 14 -11 -4 10 -14 -19 -20 -17 -20 -20 -20 -20 -20 -19 -16 -9 11 9 11 16 18 20 23 18 21
-20 -20 -20 -20 -20 -20 -20 -20 -20 -20 -20 -20 -20 -20 -20 -20 -20 -20 -20 -20 -20 -20 -20 -20 -20 -20 -16 7 6 -20 -12 -20 -20 -20 -20 -20 -20 -20 -20 -20 -20 -20 -20 -20 -20 -20 -20 -7 3 9 11 17 22 19
-20 -20 -20 -20 -18 -16 -20 -20 -20 -20 -20 -20 -20 -20 -20 -20 -20 -20 -20 -20 -20 -20 -20 -20 -20 -20 -20 -20 -20 -20 -20 -20 -20 -20 -7 -18 -20 -20 -20 -20 -20 -20 -20 -20 -20 -20 -20 -20 -20 -18 -11 1 7 8
-20 -20 -20 -20 -12 -20 -20 -20 -20 -20 -20 -20 -20 -20 -20 -20 -20 -20 -20 -20 -20 -20 -20 -20 -20 -20 -20 -20 -20 -20 -20 -20 -20 -20 -20 -20 -20 -20 -20 -20 -20 -20 -20 -20 -20 -20 -20 -20 -20 -20 -20 -20 -20 -20
-20 -20 -20 -20 -20 -20 -20 -20 -20 -20 -20 -20 -20 -20 -20 -20 -20 -20 -20 -20 -20 -20 -20 -20 -20 -20 -20 -20 -20 -20 -20 -20 -20 -20 -20 -20 -20 -20 -20 -20 -20 -20 -20 -20 -20 -20 -20 -20 -20 -20 -20 -20 -20 -20
-20 -20 -20 -20 -20 -20 -20 -20 -20 -20 -20 -16 -20 -20 -20 -20 -20 -20 -20 -20 -20 -20 -20 -20 -20 -20 -20 -20 -20 -20 -20 -20 -20 -20 -20 -20 -20 -20 -20 -20 -20 -20 -20 -20 -20 -20 -20 -20 -20 -20 -20 -20 -20 -20
-20 -20 -20 -20 -20 7 -2 -20 -20 -20 -20 -20 -20 -20 -20 -20 -20 -20 -20 -20 -20 -20 -20 -20 -20 -20 -20 -20 -20 -20 -20 -20 -20 -20 -20 -20 -20 -20 -20 -20 -20 -20 -20 -20 -20 -20 -20 -20 -20 -20 -20 -20 -20 -20
-4 -20 -20 -20 -15 -20 -20 -20 -20 -20 -20 -20 -20 -20 -5 16 -20 -19 -20 -20 -20 -20 -20 -20 -20 -16 -19 -16 -20 -20 -20 -20 -20 -20 -20 -20 -20 -20 -20 -20 -20 -20 -20 -20 -20 -20 -20 -20 -20 -20 -20 -20 -20 -20
6 -3 3 13 -20 -20 -20 -20 -20 -20 -17 -20 -20 -20 -20 -20 -20 -20 -19 5 -20 -20 -20 5 3 -15 3 -15 -20 -20 -20 -20 -20 -20 -20 -20 -20 -20 -20 -20 -20 -20 -20 -20 -20 -20 -20 -20 -20 -20 -20 -20 -20 -20
14 -15 -14 -20 -20 -20 -20 -20 -20 -20 -15 -18 -20 -20 -13 24 21 -18 -14 -12 -20 -20 -20 -20 -20 -20 -20 -20 -20 -20 -20 -20 -20 -20 -20 -20 -20 -20 -20 -20 -12 -4 -20 -20 -20 -20 -20 -20 -20 -20 -18 -11 -20 -20
8 -20 -20 -20 -20 -20 -1 -17 -19 10 34 31 -13 -20 -20 -8 -10 9 -5 -20 -20 -20 -20 -20 -20 -20 -20 -20 -20 -20 -20 -8 -20 -20 -20 -20 -20 -20 -20 -20 -20 -20 -20 -20 -20 -20 -20 -20 -20 -20 -20 -19 -20 -20
-20 -20 -20 -20 -20 -20 20 36 38 -5 -20 -20 -5 -17 -20 -13 17 23 -10 -17 -20 -20 -20 -20 -20 -20 -20 -20 -20 -20 -20 -20 -20 -20 -20 -15 -20 -20 -20 -20 -20 -20 -20 -20 -20 -20 -20 -20 -20 -20 -20 -20 -16 -20
21 36 7 -17 -20 -20 -1 -10 18 24 -9 -20 -8 -8 -18 -20 8 29 -2 -18 -20 -20 4 -20 -20 -20 -20 -9 2 -17 -3 -20 -20 -20 -20 -20 -13 -19 -20 -20 -20 -20 7 1 -20 -20 -20 -20 -20 -20 -20 -20 -20 -15
23 1 -15 -20 -20 -12 1 -3 -16 -20 -20 -20 -20 -20 -20 -20 -17 -13 -20 -20 -20 -20 -20 -20 -19 -19 -20 -20 -20 -20 -20 -20 -20 -20 -20 -20 -20 -20 -20 -20 -20 -20 -20 -2 8 -18 -20 -20 -16 -19 -20 -20 -20 -20
-20 -20 -20 -20 -20 -13 -20 -20 -20 -20 -20 -7 -11 -20 -4 14 42 24 -20 -20 -20 -20 -20 -19 -14 -20 -20 -20 -20 -20 -20 -20 -20 -20 -20 -20 -19 -20 -20 -20 -20 -20 -20 -20 -20 -14 -15 -20 -16 -20 -20 -20 -18 -20
-20 -20 -20 -20 -20 -20 -20 -3 -20 -20 -20 -20 5 10 -20 -20 -20 -20 -20 -20 -20 -20 -20 -20 -20 -20 -20 -20 -20 -20 -20 -20 -20 -20 -20 -20 -20 -20 -20 -20 -20 -20 -20 -20 -20 -19 -20 -20 7 11 11 11 3 -20
-20 -20 -20 -20 -20 -20 -20 -20 -20 -20 5 24 11 24 -16 -20 -20 -20 -20 -20 -20 -20 -20 -20 -20 -20 -20 -20 -20 -20 -19 -20 -20 -20 -20 -20 -20 -20 -20 -20 -20 -13 -20 -20 3 19 -20 -19 -17 8 -14 -12 10 -19

GFSWCAN_prec_radar_033.txt.gz
Reflectivity
13 4 7 -12 -20 -17 -7 -20 -20 10 16 17 16 11 14 14 11 17 8 17 23 22 9 18 30 32 31 21 16 -15 -9 -5 14 15 29 33 16 5 6 23 13 21 2 -20 12 13 16 18 11 13 3 -5 -10 5
-11 -15 -20 -11 -1 -19 -20 -16 14 15 14 15 7 12 13 15 13 19 12 -7 18 24 25 28 24 25 28 16 8 -9 11 19 11 14 7 9 12 11 -6 15 5 21 14 8 25 30 29 30 20 22 -2 -3 -20 -20
-20 -20 -4 -3 -20 -20 -17 14 7 15 14 16 14 16 14 14 16 17 11 -2 19 14 5 11 25 26 24 -13 14 13 8 -20 10 8 10 8 6 -20 -20 -20 1 13 -3 10 7 27 22 23 35 -7 -20 -13 -4 -20
-2 -9 -16 -20 -20 -13 15 11 12 15 3 12 16 14 12 5 9 -6 5 -2 0 7 -8 -17 17 22 1 -19 -10 -2 -20 -20 -20 -20 -6 4 6 -18 -20 -20 -20 -20 -20 -19 4 16 -15 6 30 27 -16 1 -18 -20
-20 -11 -20 -20 -15 14 12 9 13 15 11 12 13 5 4 -20 -20 -20 -20 -19 -20 -19 8 18 2 14 -11 -6 -12 -20 -10 -5 -20 -20 -20 -4 -20 -20 -20 -20 -20 -20 -20 -20 -20 -5 -19 -20 -17 8 5 -20 -1 -20
-20 -20 -20 -20 11 15 3 11 14 10 -19 10 -2 -20 -20 -20 -20 7 -1 -20 -20 -20 -20 -20 -20 -20 -20 -20 -19 -20 -20 -18 16 19 17 -9 -20 -20 -3 -20 -20 -20 -20 -20 -20 -20 -20 -20 -20 -6 -15 -20 -20 -20
-20 -20 -20 12 14 10 -3 12 11 -6 2 -20 -20 -20 -20 -20 -20 -20 -20 -20 -20 -20 -20 -17 -5 -17 8 -20 -20 -20 -16 3 3 19 28 30 26 22 21 22 11 -4 -20 -20 -20 -20 -20 -20 -20 -20 -20 -20 -20 -20
-20 -20 3 7 3 -17 4 11 7 -3 -9 -20 -20 -20 -20 -20 -20 -20 -20 -20 -20 -20 -20 -20 0 2 1 -10 -2 5 2 -1 4 7 1 21 21 29 26 32 33 12 -5 -20 -20 -20 -20 -20 -20 -20 -20 -20 -20 -20
-20 -20 -20 -20 -20 -20 -20 -20 10 -5 -6 -20 -20 -20 -20 -20 -20 -20 -20 -20 -20 -17 -20 -17 5 -20 1 8 15 14 6 -19 -15 -20 -5 26 31 31 37 37 32 28 20 18 13 -5 -7 -20 -20 -20 -20 -20 -20 -20
-20 -20 -20 -20 -20 -20 -20 -20 10 -20 -20 -20 -20 -20 -19 -20 -20 -20 -20 -20 -16 -20 -0 2 -19 -20 -20 -20 -20 -20 -10 2 -19 -16 -20 25 32 22 28 35 35 30 24 3 3 -20 -20 -20 -20 -20 -20 -20 -20 -20
-20 3 10 8 -3 -20 -20 -20 -20 -20 -20 -20 -20 -20 -20 -20 -20 -20 -20 -19 -15 -20 -20 22 37 4 -19 -20 4 -20 -16 -20 -20 -20 -5 21 31 29 7 20 28 29 25 9 -0 12 15 1 -6 -20 -20 -20 -20 -20
1 10 11 4 -18 -20 -20 -20 -20 -6 -20 -19 -20 -20 -20 -20 -20 -20 -20 -20 -20 -18 -19 6 22 25 11 -13 2 -0 -13 -6 -18 -20 -20 29 30 14 -6 19 25 26 23 23 9 13 5 13 4 -17 -20 -20 -20 -20
6 10 9 3 -20 -20 -20 -20 -20 -20 -20 -20 -20 -20 -20 -20 -20 -20 -20 -20 6 -20 -19 1 21 -12 -20 -20 15 26 -3 -18 -19 -20 -19 18 16 10 -7 6 23 20 14 24 33 34 32 19 21 17 18 27 12 -18
-4 7 4 -20 -20 -20 -20 -20 -20 -20 -20 -12 -20 -20 -20 -20 -6 -20 -20 -20 -20 -20 -13 -2 -17 -20 1 -20 -20 11 -14 -20 -20 -18 -5 9 1 5 12 -20 0 4 17 7 19 26 28 32 36 27 28 31 23 25
1 -20 -20 -20 -20 -20 -20 -20 -20 -20 -20 -20 -20 -20 -20 -20 -20 -20 -20 -20 -20 -20 -20 -4 -20 -20 -20 -20 -20 -20 -20 -13 -18 19 17 9 -20 -20 -9 -20 -20 -19 -20 14 8 11 26 27 34 36 39 42 36 33
-20 -20 -16 -20 -20 -20 -20 -20 -18 -20 -20 -20 -20 -20 -20 -20 -20 -20 -20 -20 -20 -20 -16 -16 -20 -20 -20 -10 -20 -19 -20 -9 15 11 -1 10 -3 -20 -20 -20 -20 -20 -20 -20 15 6 13 14 21 21 31 30 34 36
-20 -20 -20 -20 -20 -20 -20 -20 -20 -20 -20 -20 -13 -20 -20 -20 -20 -20 -20 -20 -20 -20 -20 -20 -20 -20 -19 -20 4 8 12 9 17 -20 19 -13 -3 -13 -20 -20 -20 -20 -20 -20 -19 10 -4 15 12 16 17 17 17 15
-20 -20 -20 -20 -20 -20 -20 -20 -20 -20 -20 -20 -20 -0 0 -20 -20 -20 -20 -20 -20 -20 -20 -20 -20 -20 -20 -20 2 -17 -20 -20 -20 -20 -20 -20 -20 -20 -20 -20 -20 -20 -20 -20 -20 -20 -20 -14 1 8 12 13 15 20
-20 -20 -20 -20 -19 -15 -20 -20 -20 -6 4 -20 -20 -20 -20 -20 -20 -20 -20 -20 -20 -20 -20 -20 -20 -20 -20 -20 -20 -20 -20 -20 -20 -20 -1 -20 -20 -20 -20 -20 -20 -20 -20 -20 -20 -20 -20 -20 -20 -10 -14 2 11 13
-20 -20 -20 -20 -19 -20 -20 -20 -20 -20 -20 -20 -20 -20 -20 10 -6 -20 -20 -20 -20 -20 -20 -20 -20 -20 -20 -20 -20 -20 -20 -20 -20 -20 -20 -20 -20 -20 -15 -20 -20 -20 -20 9 -11 -20 -20 -20 -20 -14 -20 -20 -12 -10
-20 -20 -20 -20 -20 -20 -20 -20 -20 -20 -20 -20 -20 -20 -20 -20 3 -20 -20 -20 -20 -20 -20 -20 -20 -20 -20 -20 -20 -20 -20 -20 -20 -20 -20 -20 -20 -20 -20 -20 -20 -20 -20 -20 5 -20 -20 -20 -20 -20 -20 -20 -20 -20
-20 -20 -20 -20 -20 -20 -20 -20 -20 -20 -20 -20 -20 -20 -20 -20 -9 -20 -20 -20 -20 -20 -20 -20 -20 -20 -20 -20 -20 -20 -20 -20 -20 -20 -20 -20 -20 -20 -20 -20 -20 -20 -20 -20 -20 -20 -20 -20 -20 -20 -20 -20 -20 -20
-20 -20 -20 -20 -20 -20 -20 -20 -20 -20 -20 -20 -19 -17 -20 -20 -20 -20 -20 -8 -18 -20 -20 -20 -20 -20 -20 -20 -20 -20 -20 -20 -20 -20 -20 -20 -20 -20 -20 -20 7 -14 -20 -20 -20 0 -18 -20 -20 -20 -20 -20 -20 -15
-20 -20 -20 -18 -20 -20 -20 -20 -20 -8 -4 4 -0 8 -20 -20 6 8 -9 3 -18 -20 -20 -20 -20 -20 -20 -3 -20 -20 -20 -20 -20 -20 -20 -20 -20 -20 -20 -14 -18 -20 -20 -20 -20 -20 -11 0 -20 -20 -20 -20 -20 -10
-2 -19 -8 0 -20 -20 -20 -20 11 40 38 13 -17 11 -20 -19 19 25 13 -19 -19 -20 -20 -20 -20 -20 -20 -20 -13 -20 -20 -20 -20 -20 -20 -20 -20 -20 -20 -11 -20 -20 -20 -20 -20 -20 -20 -20 -20 -20 -20 -20 -20 -19
11 -20 -19 -20 -20 -20 -18 -11 -6 -9 -2 -20 -20 -20 -19 30 11 32 28 30 21 6 -20 -20 -20 -20 -20 -20 -20 -20 -20 -20 -20 -20 -20 -20 -20 -20 -20 -20 -20 -20 -20 -20 -20 -20 -20 -20 -19 2 -20 -20 -20 -20
-2 -20 -20 -20 -20 -15 33 20 -20 -3 14 -20 -20 3 12 -19 12 13 20 -5 -10 -20 -20 -20 -20 -20 -20 -20 -20 -20 -20 -20 -20 -20 -20 -20 -20 -20 -20 -20 -20 -20 -20 -20 -20 -20 -20 -20 -20 -20 -20 -20 -20 -20
-20 -20 -19 -20 -18 -19 -6 27 -20 -7 -7 -20 -7 5 -20 -17 -10 -20 -20 -20 -20 -20 -20 -20 -20 -20 -20 -2 -20 -20 -20 -20 -20 -20 -20 -20 -20 -20 -20 -20 -20 -20 -20 -20 -20 -20 -20 -20 -20 -20 -20 -20 -20 -20
-20 -20 -20 -20 -20 -12 33 -20 -20 -20 -20 -18 -1 -18 -19 13 18 -20 -20 -20 -20 -20 -20 -20 -16 -20 -15 4 -20 -20 -20 -14 -20 -20 -20 -5 8 2 -20 -20 -20 -20 -20 -20 -20 -20 -20 -20 -20 -20 -20 -20 -20 -20
-17 -20 -19 -20 -20 -15 -20 -20 -20 -8 20 17 29 41 28 13 -6 -0 -20 -20 -20 -20 -20 -18 -20 -20 -15 -20 -20 -20 -20 -20 -20 -20 -20 -20 -20 -20 -20 -20 -20 -20 -20 -20 -20 -20 -19 -17 -20 -20 -20 -20 -20 -20
-20 -20 -20 -20 -20 -1 -20 -0 11 -5 -20 -20 -19 -5 13 17 19 3 -20 -20 -20 -20 -20 -20 -20 -20 -20 -20 -20 -20 -20 -20 -20 -20 -20 -20 -20 -20 -20 -20 -20 -20 -20 -20 -20 -20 -20 -20 -19 14 6 1 -20 -20
-19 -20 -20 -20 -20 -20 1 -3 -20 -20 -20 -20 -20 -20 2 37 5 -18 -20 -20 -20 -20 -20 -20 -20 -20 -20 -20 -20 -20 -20 -20 -20 -20 -20 -20 -20 -20 -20 -20 -20 -20 -20 -12 -20 -20 11 13 -20 -20 11 9 2 -20
-20 -20 -16 2 -3 -20 -20 -20 -20 -20 -20 -20 -3 31 -14 -20 -20 -20 -20 -20 -20 -20 -20 -20 -20 -20 -20 -20 -20 -20 -20 -20 -20 -20 -20 -20 -20 -20 -20 -20 -20 -20 -20 -20 -20 -15 -20 -19 -11 -14 -6 -20 -14 2